Theta_e
342 345 346 346 352 355 358 358 348 353 356 347 347 353 354 356 357 356 358 358 358 357 354 356 353 353 354 354 356 355 354 358 357 357 357 353 350 351 351 351 353 353 353 354 353 354 354 356 355 354 353 353 351 351 353 352 352 351 349 350 353 352 350 349 350 352 352 350 349 348 348 347 345 343 342 343 344 345 346 348 347 347 348 348 348 348 346 346 346 347 347 347 347 346 346 346 347
345 345 345 347 353 358 363 359 349 350 351 345 348 353 355 358 359 357 359 358 359 355 353 352 352 353 353 352 354 354 354 353 351 353 353 351 352 352 351 351 352 353 354 354 354 354 355 355 355 355 355 355 354 354 354 353 354 353 352 353 353 351 350 349 349 350 351 350 349 350 350 348 345 344 343 344 344 345 346 345 345 346 347 347 347 347 347 346 347 347 347 348 348 347 348 347 347
347 347 348 353 357 361 364 358 348 348 348 345 348 353 355 359 361 359 358 357 356 353 351 352 353 352 353 358 358 357 356 351 349 351 352 352 353 352 351 352 352 353 353 353 354 354 354 355 355 355 356 355 354 355 354 353 354 353 353 352 350 349 349 348 348 349 351 351 351 351 350 348 346 344 344 344 345 346 345 345 345 346 347 347 347 347 347 346 346 348 347 347 348 348 348 347 347
348 348 351 358 365 366 369 362 351 350 348 345 348 355 357 359 360 357 356 355 353 352 353 354 355 351 354 362 356 353 355 351 351 351 352 352 352 352 352 353 352 353 353 353 353 353 354 355 355 354 355 354 354 354 352 351 351 351 351 350 349 348 347 347 346 349 350 350 350 349 348 346 344 344 344 345 347 347 346 345 346 347 347 347 346 346 346 347 347 348 348 347 348 347 346 346 347
349 350 352 357 368 368 366 357 351 353 348 349 354 358 359 357 357 355 354 354 352 354 353 354 356 351 351 355 352 353 354 351 352 352 352 352 352 352 353 353 352 353 354 353 352 352 353 355 355 354 354 354 354 353 351 349 349 348 349 348 348 348 346 345 346 347 348 347 347 346 345 344 344 344 345 347 347 346 345 346 347 347 347 345 344 345 346 347 347 348 347 347 347 347 347 346 346
350 352 352 353 359 359 356 344 340 345 345 354 358 359 359 354 355 354 353 352 351 352 351 353 355 353 353 351 351 352 351 352 352 352 352 353 352 352 353 353 352 353 354 353 352 352 353 355 354 354 354 353 353 352 351 348 348 347 346 347 347 348 347 346 346 347 346 346 345 344 346 346 345 345 346 346 345 345 346 346 347 347 346 345 344 345 345 345 346 347 346 346 346 347 347 346 347
350 353 355 358 356 353 351 340 337 342 342 351 358 357 355 353 355 354 354 352 350 350 350 353 352 355 358 353 353 352 351 352 352 352 352 352 352 353 354 353 352 352 353 353 352 352 353 354 353 353 353 352 351 352 351 348 348 348 347 347 349 351 350 348 350 349 347 346 345 345 346 346 345 346 346 345 344 345 346 346 346 347 346 345 344 344 343 343 344 344 344 344 345 346 346 345 347
348 355 358 363 358 351 347 338 338 346 348 350 353 354 353 354 355 353 355 354 354 353 352 354 351 358 359 352 356 354 352 353 352 352 352 352 352 353 354 353 353 352 352 352 352 352 353 354 352 352 352 351 352 352 351 350 350 350 350 350 351 352 350 349 350 350 349 348 348 347 346 345 345 347 347 345 345 346 346 346 346 346 346 344 343 342 340 340 340 341 342 343 343 344 344 345 347
346 352 351 355 350 342 337 335 341 348 353 352 352 354 353 354 353 353 356 355 356 355 354 355 354 359 357 354 357 354 352 353 352 353 352 352 352 354 354 353 353 353 353 352 352 353 353 353 352 352 351 351 352 352 351 350 351 351 351 350 351 350 349 349 349 349 349 348 348 348 347 347 348 349 347 346 346 346 346 346 346 346 344 342 341 339 337 338 338 338 342 343 343 343 344 346 347
350 350 350 354 345 334 330 334 343 350 354 353 353 354 353 353 353 353 355 356 356 356 355 354 356 358 356 356 358 354 353 353 352 353 353 353 352 353 353 353 354 354 354 352 351 352 352 352 352 351 351 351 352 352 351 350 351 351 350 349 349 348 348 348 348 348 348 348 348 349 349 349 349 348 346 346 346 346 347 346 345 345 342 340 338 337 337 337 338 339 341 343 342 342 343 346 346
355 347 346 355 344 331 330 334 342 350 353 352 353 352 353 352 354 354 354 358 358 358 355 353 355 355 355 356 357 355 353 353 353 353 353 353 352 352 353 353 354 354 354 353 351 352 352 352 352 351 350 351 351 351 350 350 350 349 348 347 347 347 347 346 346 347 347 348 348 348 348 349 349 347 347 347 347 347 346 346 345 343 341 339 337 337 338 339 339 339 339 340 341 341 343 345 345
353 346 351 358 344 336 334 337 342 351 353 353 354 352 353 353 355 356 356 360 357 356 354 354 354 354 357 358 356 354 353 354 353 353 353 353 352 352 352 353 353 353 354 353 352 352 352 353 353 352 351 351 351 351 350 349 348 347 346 345 346 346 346 346 345 345 346 346 347 347 348 348 348 347 347 346 346 346 345 344 343 341 340 338 338 338 338 340 340 339 339 340 341 343 344 345 344
351 352 361 352 343 344 339 341 348 353 356 355 355 353 354 354 355 355 357 358 355 357 355 353 352 353 357 357 356 353 353 354 353 354 353 352 351 352 352 353 354 353 354 353 353 353 353 353 354 354 353 352 351 351 350 349 348 347 347 346 347 347 348 347 345 345 346 346 347 347 348 347 347 347 347 347 346 345 345 343 342 342 342 341 342 344 345 346 347 346 346 345 346 345 345 345 345
350 355 366 349 342 346 341 346 351 351 354 354 353 353 354 354 353 353 355 357 356 357 353 351 351 355 357 356 358 353 353 354 353 355 354 352 350 351 352 352 354 354 354 354 354 354 354 354 354 354 352 352 352 351 351 350 349 348 349 349 349 350 350 348 347 347 347 347 347 347 348 347 347 348 348 347 347 346 345 343 341 343 345 346 348 351 352 351 350 351 350 349 349 348 345 345 346
347 355 367 352 342 341 340 347 350 349 351 353 354 353 354 354 353 351 352 357 358 352 351 352 350 357 359 356 358 354 353 354 354 355 354 354 350 350 352 352 353 353 355 355 355 354 354 354 354 353 352 351 351 351 350 350 349 349 349 349 350 350 350 349 349 349 348 348 347 347 348 348 348 348 348 347 346 346 344 343 341 341 344 348 350 352 351 348 349 351 350 349 350 350 348 347 347
344 351 360 351 338 336 341 345 346 348 350 352 353 353 356 353 351 352 351 355 355 350 352 355 351 355 357 353 355 353 353 354 355 355 355 355 352 351 351 352 352 353 354 355 355 354 355 355 354 354 352 352 351 350 349 349 349 349 349 349 349 349 348 349 350 349 348 348 348 349 348 349 348 348 348 347 345 345 344 342 339 339 341 346 351 352 350 348 350 350 349 349 350 351 350 349 348
340 347 353 346 337 335 340 344 344 347 350 352 353 353 356 353 350 351 350 351 352 352 354 354 351 352 352 352 353 353 354 355 355 356 355 355 353 351 352 352 353 353 354 354 354 354 354 355 354 354 354 353 352 351 349 349 349 349 349 349 348 348 348 349 350 349 349 350 350 349 349 349 348 347 349 347 344 345 345 342 339 340 342 346 352 352 351 351 351 351 350 349 350 351 351 350 349
342 353 349 340 341 340 341 342 341 346 350 352 352 352 354 353 353 351 350 351 352 355 354 353 353 352 351 352 352 353 354 355 356 356 355 354 353 352 352 352 353 353 353 353 353 353 354 354 354 354 354 353 352 351 350 349 350 350 348 348 348 349 350 350 350 350 350 351 350 349 347 347 347 346 346 345 342 342 342 341 343 347 349 350 352 353 352 352 352 352 351 349 350 352 351 350 349
348 355 345 345 351 344 340 340 339 345 349 350 351 351 351 353 353 351 353 354 354 357 355 355 356 354 352 352 353 354 354 355 356 355 355 353 353 352 351 352 352 352 353 353 353 353 353 353 354 354 354 353 353 352 351 350 350 350 348 348 349 349 350 351 350 350 349 350 350 348 346 346 345 344 343 342 341 339 340 342 346 351 352 352 352 352 351 351 352 352 351 349 349 350 350 350 349
346 348 347 354 352 342 340 338 339 344 347 350 351 350 351 351 351 351 353 355 357 358 356 357 359 356 353 353 353 354 355 355 355 355 355 353 352 352 351 351 351 352 352 352 353 353 352 352 352 353 353 353 353 352 351 351 351 350 349 349 350 349 350 351 349 349 349 349 348 347 347 346 344 342 340 341 342 343 345 347 349 350 351 351 352 351 350 350 350 350 350 349 348 349 349 348 348
340 343 350 353 344 341 341 337 338 343 345 350 351 351 353 351 350 350 352 357 359 356 355 356 357 355 354 353 353 354 355 355 355 355 355 354 352 352 351 351 351 351 351 351 352 353 352 352 351 352 352 353 352 352 351 350 351 351 349 349 349 349 349 350 349 348 348 347 348 347 346 345 343 342 341 342 344 347 349 350 350 350 350 350 351 351 350 350 348 348 348 348 348 349 348 348 347
338 341 346 346 342 342 340 337 340 343 347 350 350 351 351 349 350 351 352 361 362 354 352 353 354 354 354 354 353 354 355 354 355 355 354 354 352 352 352 351 351 351 351 351 351 352 352 352 351 351 351 353 353 352 351 350 350 350 349 349 349 348 348 348 348 347 347 347 347 346 345 344 343 342 342 343 346 348 349 349 349 349 350 350 350 351 350 348 348 347 347 347 348 347 347 347 346
338 340 341 341 342 342 339 338 341 344 348 349 349 350 349 350 353 351 352 359 358 351 351 351 352 353 353 354 354 354 354 354 355 355 354 353 352 352 351 351 351 351 351 350 349 350 352 352 352 351 351 352 353 352 351 350 349 349 348 348 348 347 347 347 347 346 346 346 346 345 345 345 344 344 344 346 347 348 348 348 349 350 350 350 349 349 349 348 348 348 348 347 347 347 346 346 346
336 337 339 339 340 342 339 339 342 344 346 347 347 348 349 352 354 351 353 355 353 351 350 350 352 353 354 354 354 353 353 354 354 355 354 353 352 352 351 351 351 350 351 350 349 350 351 352 351 351 351 352 352 351 350 350 349 348 348 347 347 347 347 346 346 346 345 345 345 345 345 345 346 347 348 348 348 348 349 349 349 350 350 349 348 348 348 348 348 348 348 348 348 348 347 346 346
333 335 339 338 339 341 338 339 341 343 344 345 348 349 350 351 352 351 353 353 352 351 350 351 352 353 353 354 354 354 353 354 354 354 354 353 353 352 352 351 351 351 351 351 350 350 351 351 351 351 351 352 352 351 350 350 349 348 348 347 346 346 347 346 345 346 345 344 344 344 345 347 348 349 350 350 349 349 349 349 350 350 349 348 347 347 348 348 348 348 348 349 349 349 349 348 347
333 336 340 340 340 339 338 340 341 342 344 346 348 350 351 349 350 351 352 352 351 351 351 351 352 353 354 354 353 354 353 353 353 354 354 354 353 353 352 351 352 351 350 351 351 350 351 350 351 351 351 351 351 351 350 350 349 348 347 347 347 346 346 346 345 345 345 344 345 345 347 349 350 350 350 350 350 350 349 350 350 349 348 348 348 348 348 349 348 349 350 350 350 350 350 350 350
334 339 342 342 342 340 340 342 343 345 345 346 349 351 352 349 352 356 353 351 351 351 352 351 352 353 353 353 353 353 352 353 353 353 353 353 354 353 353 352 352 351 351 351 351 349 350 350 351 351 351 351 350 350 350 349 349 347 347 347 346 346 345 345 345 345 345 346 347 349 350 351 351 351 351 351 351 350 351 351 351 350 349 348 348 348 348 349 349 350 350 351 351 350 349 350 350
338 343 345 344 343 342 343 345 345 346 346 346 348 351 351 348 353 358 353 351 351 352 353 352 353 354 353 353 353 353 352 352 353 352 352 353 353 353 353 352 352 351 351 350 349 347 348 349 349 350 350 350 350 350 349 349 348 347 347 347 346 345 345 346 347 348 349 350 351 352 352 353 352 352 351 351 350 350 351 352 352 351 349 349 349 349 349 349 349 350 351 351 351 350 349 348 349
343 345 348 347 345 345 344 346 346 346 348 347 347 350 352 351 353 355 352 350 352 352 353 353 353 353 353 353 353 353 352 352 352 352 352 352 353 353 353 352 352 351 350 348 348 348 347 347 347 348 348 350 349 349 349 348 348 348 347 347 345 344 346 349 350 351 352 352 353 353 353 353 352 352 351 350 350 350 351 352 352 351 350 350 350 350 350 349 349 350 352 351 350 350 348 347 347
345 345 348 348 346 347 347 346 348 348 347 346 348 348 351 355 353 352 352 351 352 353 353 353 353 353 353 353 353 353 352 351 352 351 352 353 352 353 353 353 352 350 350 350 350 349 348 347 347 346 347 348 348 348 349 349 349 350 350 350 349 346 347 350 352 353 353 353 353 353 353 353 352 352 351 350 349 349 350 351 352 351 351 351 351 350 350 349 350 351 352 350 349 349 348 347 347
347 346 348 351 341 341 350 347 349 351 346 346 350 349 351 356 353 351 352 351 353 354 353 353 353 353 352 353 353 353 352 350 351 352 352 352 352 352 353 353 352 352 352 353 352 351 350 349 347 347 347 348 348 349 349 350 352 352 352 353 352 350 350 351 353 353 353 353 353 353 353 352 352 352 351 351 349 349 349 351 352 351 351 351 350 350 350 350 351 350 349 349 347 347 346 346 347
346 343 340 347 340 340 351 348 348 351 347 345 346 348 353 355 352 352 352 350 353 353 353 353 353 353 352 352 353 352 352 350 350 352 352 352 352 352 352 353 353 354 354 354 354 354 353 352 351 350 349 349 350 350 351 352 353 354 354 354 353 353 352 352 352 352 352 352 352 352 352 352 352 351 351 350 349 350 350 351 352 351 349 350 350 350 351 350 349 347 346 346 346 345 344 344 345
343 345 335 338 339 340 347 346 345 347 349 346 343 350 357 356 352 351 352 351 353 354 353 354 353 353 352 352 352 352 352 351 350 350 351 351 352 352 352 352 353 354 354 354 355 355 355 355 354 353 352 351 353 353 353 353 353 354 354 354 354 354 353 353 352 352 352 351 351 351 351 351 351 350 349 349 349 350 351 352 352 351 350 350 350 350 350 349 347 345 344 343 345 345 344 344 344
335 341 337 336 338 340 341 344 344 343 348 349 349 358 360 356 353 350 351 352 352 354 354 353 353 352 353 352 351 352 352 351 351 349 350 351 351 352 352 352 353 353 354 354 354 354 354 355 355 355 354 354 355 354 354 353 353 353 354 354 355 354 353 353 352 352 351 350 350 351 351 350 349 349 348 348 349 350 351 352 352 351 351 350 349 349 347 345 343 341 340 340 344 346 345 344 344
329 330 331 331 334 338 339 342 344 345 348 349 351 358 358 353 352 351 351 351 352 354 353 352 353 352 352 352 351 351 351 351 350 349 349 350 350 351 352 352 353 352 353 354 354 354 354 355 355 355 355 355 355 355 355 354 354 354 354 355 355 355 354 353 353 352 351 350 351 352 352 351 350 349 349 349 349 349 349 350 351 350 350 348 346 345 342 340 339 338 339 340 343 345 344 343 344
334 332 331 329 330 335 341 343 343 345 348 350 350 353 356 353 352 352 350 350 352 352 352 352 351 352 351 351 351 351 351 350 348 347 349 349 349 350 351 352 352 352 353 354 354 354 354 354 355 356 355 355 355 355 355 355 355 355 355 355 356 355 354 353 353 352 351 351 353 353 353 353 352 350 350 350 349 348 348 347 347 346 346 345 343 341 338 337 337 336 338 340 342 343 343 343 344
338 335 331 331 331 332 340 342 341 344 346 347 351 352 354 353 352 352 350 350 351 350 351 351 350 351 350 350 350 350 350 349 347 347 347 348 348 349 351 351 352 352 352 353 354 354 355 354 355 356 355 355 355 355 356 356 355 355 354 355 355 355 354 354 353 352 352 353 354 354 354 354 352 350 350 348 346 345 345 344 343 342 343 343 341 337 335 335 337 337 340 342 344 344 343 343 344
336 332 329 329 330 334 340 342 341 344 345 346 353 355 352 352 351 350 349 350 350 350 350 350 350 349 349 349 349 349 349 348 347 346 345 346 347 348 350 351 351 351 352 352 353 354 354 354 354 354 354 355 355 354 355 355 355 353 353 354 355 355 355 354 354 353 353 354 354 354 354 353 351 349 348 345 343 343 343 341 341 342 342 341 338 334 334 336 339 341 342 343 344 344 343 343 343
332 333 330 325 331 337 337 341 344 342 342 347 352 352 349 349 350 349 349 350 349 348 348 347 348 348 348 349 348 348 348 348 349 346 344 344 345 347 349 350 350 351 351 352 353 353 354 354 354 353 354 354 354 354 354 354 354 352 353 354 355 355 355 354 354 354 354 354 354 354 354 352 349 348 346 344 343 343 342 342 343 342 341 338 335 334 336 339 341 342 343 344 344 343 342 342 342
331 335 329 325 333 333 327 335 345 343 343 348 351 353 355 352 350 350 348 348 349 347 346 346 346 347 347 347 347 347 348 348 349 347 344 343 344 346 348 349 350 350 350 351 352 352 353 353 353 352 353 353 352 353 353 353 353 353 354 355 355 355 354 354 354 354 355 354 354 354 353 351 348 348 346 344 343 342 342 343 343 340 338 336 335 336 339 340 341 342 343 343 343 341 340 341 342
328 333 332 331 335 334 333 337 342 345 344 347 350 348 353 355 350 351 348 346 348 346 346 347 346 346 346 346 346 347 347 347 349 348 346 344 343 345 347 348 349 349 349 350 351 352 352 352 351 350 351 351 351 352 352 353 354 355 355 355 355 355 354 354 354 354 354 354 353 352 350 348 347 348 347 344 342 342 341 341 340 338 337 337 337 338 339 340 341 342 342 342 342 341 340 340 341
323 327 333 337 338 338 343 342 338 336 334 343 347 335 343 359 352 349 350 348 348 348 347 347 347 348 346 347 347 346 346 347 349 349 347 346 344 345 346 348 348 348 349 349 350 351 351 351 350 350 351 351 351 351 352 353 354 355 355 355 355 354 354 354 354 354 354 353 351 348 345 343 345 347 346 343 341 340 338 337 337 338 338 338 338 337 339 340 340 342 342 341 341 341 341 340 339
320 328 333 333 339 339 340 340 336 331 330 341 344 333 340 354 350 347 351 350 349 349 348 346 347 349 347 347 346 345 345 346 349 349 348 347 346 346 346 347 348 348 348 349 349 350 350 351 350 350 351 351 351 351 352 353 354 355 356 356 355 355 354 354 354 354 353 350 346 343 341 341 344 345 343 340 339 337 336 336 337 339 339 338 338 337 338 340 339 341 341 340 340 340 341 340 338
324 334 333 330 337 341 340 337 333 334 337 340 343 338 336 339 343 348 350 350 350 349 348 347 347 348 348 347 346 346 345 346 349 350 350 349 347 347 347 347 348 348 348 349 349 350 350 350 350 350 350 351 351 351 352 353 353 355 355 356 355 355 354 354 355 353 348 344 341 340 340 340 342 342 339 337 336 335 335 337 338 339 339 339 337 335 338 339 339 340 341 339 340 340 339 339 338
333 336 329 327 331 338 341 336 332 337 336 332 339 339 332 335 349 353 348 348 349 349 348 347 347 347 348 348 346 346 345 345 349 350 350 349 348 348 347 347 347 348 349 349 349 350 350 350 350 350 350 350 351 352 352 352 353 354 355 355 355 355 354 355 354 349 343 341 340 339 338 339 339 338 336 336 336 335 335 337 338 339 339 338 336 334 337 339 338 339 340 340 340 338 338 338 338
333 328 327 331 333 337 340 337 334 334 330 329 336 335 328 335 349 348 344 346 346 347 347 346 346 346 347 348 347 346 346 345 348 350 350 348 348 349 348 348 348 348 349 349 350 350 350 351 350 350 351 351 351 352 351 353 353 354 355 355 355 355 355 355 351 344 340 339 339 338 338 338 337 336 336 336 337 336 336 337 338 338 339 337 336 334 337 339 338 339 340 339 337 336 336 337 338
327 325 328 332 340 348 352 351 340 330 329 330 332 333 328 330 343 346 343 346 347 346 347 345 346 346 346 348 348 347 346 346 348 350 350 348 348 350 349 349 349 349 349 349 351 351 351 351 351 351 352 351 352 352 352 353 353 355 355 355 355 355 355 353 347 341 339 339 338 337 337 337 336 336 337 337 337 337 336 337 337 338 338 336 336 335 336 337 337 339 340 338 334 334 335 336 337
326 332 330 323 332 342 344 344 335 327 330 332 331 335 331 327 338 347 345 346 347 346 346 346 345 346 346 347 347 347 347 346 347 350 351 350 350 350 350 351 350 350 350 351 351 352 352 352 352 353 353 353 353 353 353 354 354 355 355 355 355 355 355 353 347 342 339 338 337 337 337 337 336 337 337 337 337 336 335 337 337 337 337 336 336 335 335 336 336 337 339 337 335 335 336 337 337
326 332 325 317 322 326 327 331 330 329 331 331 331 334 332 330 336 343 345 345 344 344 345 344 343 344 345 346 347 347 347 347 347 350 351 352 352 351 351 351 351 351 351 351 352 352 353 353 353 353 354 354 354 354 354 354 354 355 354 355 355 355 355 354 349 343 340 338 338 337 337 337 337 338 338 338 337 335 335 337 338 337 337 336 335 334 335 336 336 337 337 337 336 336 337 336 336
323 325 320 317 320 320 324 331 331 330 330 329 331 334 333 334 341 346 345 341 342 343 342 342 343 344 344 345 346 347 347 347 347 349 351 352 352 351 351 351 352 352 353 352 353 353 353 354 354 353 354 354 354 355 355 355 355 355 355 355 355 355 355 354 349 344 340 338 337 337 337 337 337 338 338 338 337 335 336 338 338 337 336 335 334 334 335 336 336 337 337 336 335 336 336 336 336
323 329 326 320 323 322 323 328 328 327 327 325 328 336 335 331 338 351 347 339 340 341 340 341 344 345 343 343 346 347 347 348 348 350 350 352 352 350 351 352 352 353 353 353 354 354 354 354 354 354 354 354 355 355 355 355 355 355 355 356 356 356 356 353 347 342 340 338 337 337 337 336 336 338 339 339 337 335 336 338 337 335 334 333 333 334 335 336 336 336 336 335 334 334 334 334 335
321 331 325 317 325 325 320 325 333 330 327 325 327 336 342 337 338 351 353 347 345 341 341 344 346 348 345 343 346 347 348 349 349 350 351 352 351 350 351 352 352 353 353 354 354 355 355 355 355 355 355 355 355 355 355 355 355 355 356 356 356 356 355 350 344 340 339 337 336 336 335 335 337 338 339 338 337 336 336 337 335 333 333 333 333 333 334 335 335 335 335 334 334 334 334 334 334
322 321 319 322 328 328 320 320 329 327 323 328 328 327 333 333 338 350 354 352 349 345 344 343 346 349 346 345 347 346 348 349 349 351 351 352 351 350 352 352 352 353 353 355 355 355 356 356 356 356 356 356 355 356 355 355 356 356 356 357 357 355 352 346 340 338 337 336 336 334 332 335 338 339 339 337 335 335 335 335 334 333 333 333 334 334 334 335 335 335 335 335 335 335 335 334 334
324 316 321 326 324 330 331 322 324 325 322 328 326 321 323 324 335 356 354 347 348 347 344 342 345 350 347 345 345 346 348 348 349 351 351 352 351 350 351 352 352 353 353 354 355 356 357 356 357 357 356 356 356 355 356 355 356 356 357 357 356 354 350 344 339 336 334 335 334 333 334 337 339 339 338 335 333 334 335 335 334 334 333 333 333 333 334 335 335 335 335 335 335 335 335 335 335
325 322 326 326 318 322 326 321 322 322 322 327 324 322 325 323 331 348 345 343 348 345 344 343 344 349 347 344 344 345 347 348 349 350 350 352 351 350 351 352 352 353 353 354 355 356 357 356 357 357 356 357 356 355 355 355 356 356 356 357 355 353 349 343 338 334 333 332 333 334 336 337 338 339 337 333 332 335 336 335 335 335 334 333 333 333 333 334 334 334 335 335 335 335 335 335 335
323 325 325 324 324 324 321 320 322 320 323 328 322 320 327 330 334 342 341 346 346 342 346 346 343 345 344 342 344 344 345 348 348 349 350 351 350 350 350 351 352 353 352 353 354 355 356 356 357 357 356 357 356 355 355 354 354 355 355 356 354 351 346 340 337 335 332 332 334 336 336 336 337 338 336 333 333 335 335 335 335 335 334 333 332 332 332 333 333 333 334 334 335 335 336 336 335
319 319 319 319 322 324 322 322 324 324 326 328 323 321 329 340 342 343 343 346 344 343 348 347 343 342 341 341 343 343 344 346 347 348 349 349 348 349 350 351 351 352 352 353 354 355 356 357 356 357 356 356 356 355 354 354 353 353 354 354 352 347 342 339 336 334 333 334 337 336 334 335 336 336 335 334 334 334 334 335 335 334 334 333 332 332 332 332 332 332 332 332 333 334 335 336 336
322 319 319 319 320 320 317 318 323 325 324 327 327 319 326 343 347 342 342 344 344 343 345 345 345 341 340 342 342 343 345 344 346 347 346 348 348 347 349 350 350 351 352 353 354 355 356 356 357 357 356 356 356 354 353 352 352 352 353 353 352 347 341 338 336 335 334 336 338 335 332 335 336 335 335 334 333 332 333 335 335 334 334 333 332 332 332 332 332 332 332 331 331 332 333 334 335
Wind_Speed
14 15 15 16 15 11 4 0 1 2 2 2 2 1 2 1 2 2 4 3 2 1 2 5 5 4 5 6 8 8 6 3 1 2 2 4 10 10 8 12 14 16 17 17 17 19 19 21 22 22 24 24 25 26 25 25 25 25 26 25 23 24 25 25 25 24 22 21 21 20 19 19 19 19 18 17 16 15 13 12 12 11 10 10 9 9 9 9 8 8 7 7 6 6 5 5 5
15 16 15 15 11 5 0 1 3 2 4 2 3 0 2 3 3 3 4 3 2 3 5 8 8 8 9 10 8 6 7 6 4 3 4 11 13 8 10 14 16 15 16 18 18 18 19 20 21 21 24 24 26 27 26 26 26 25 25 25 24 25 25 25 25 25 22 20 20 19 19 18 19 18 18 17 15 14 12 12 11 10 10 9 9 9 9 8 7 7 7 6 5 5 5 4 4
17 16 17 13 4 0 1 3 3 2 4 2 3 2 1 3 3 3 4 5 6 7 7 8 7 6 6 7 4 4 5 6 8 7 6 12 10 8 13 15 16 15 16 18 18 19 19 19 19 20 22 24 25 26 26 25 25 25 24 24 25 25 25 25 25 24 21 20 19 19 18 18 18 17 17 16 14 13 11 11 10 10 9 9 9 8 8 7 7 6 6 5 5 4 4 4 3
18 17 17 9 1 2 2 3 2 4 3 3 1 3 1 2 4 5 5 7 7 6 4 4 4 3 5 7 4 5 6 6 8 7 6 8 9 13 15 15 16 16 16 18 19 20 20 19 20 20 21 22 23 23 24 24 25 25 24 25 25 25 24 25 24 23 20 19 18 18 18 18 17 16 16 15 13 12 11 10 10 9 9 9 8 8 7 7 6 5 5 5 4 4 3 3 3
18 18 13 4 2 1 1 2 2 3 2 4 2 3 3 4 6 7 5 5 4 4 3 3 3 2 6 6 1 3 6 6 6 6 7 9 14 17 16 16 17 17 17 18 20 21 20 19 20 21 20 21 21 20 22 23 24 24 24 24 23 23 22 22 22 21 19 18 17 17 17 17 16 15 14 13 12 11 10 10 9 9 9 8 8 7 7 6 5 4 4 4 4 3 3 3 3
19 15 7 1 1 2 1 3 2 1 2 4 3 2 5 5 6 8 8 7 6 6 5 4 5 6 6 4 3 3 4 6 6 5 10 15 17 18 17 18 18 18 18 18 20 22 21 19 19 21 20 21 21 20 19 21 23 23 23 23 22 21 20 19 19 19 18 17 17 17 16 15 15 14 13 12 11 10 10 9 9 9 8 7 7 6 5 5 5 4 4 4 4 3 3 3 2
20 10 1 1 0 0 3 3 2 1 0 1 3 5 6 5 6 9 8 6 6 7 5 6 6 8 5 1 3 4 5 7 6 9 15 18 19 19 20 19 18 18 18 18 20 21 21 19 20 21 21 21 21 20 18 19 21 21 22 21 21 20 19 19 18 18 17 17 16 15 15 15 14 13 12 11 10 9 9 9 8 8 8 7 6 5 4 4 4 4 4 4 3 3 3 3 3
16 5 1 3 1 2 4 3 2 1 1 2 2 6 7 7 6 6 6 3 3 4 6 6 4 7 4 2 4 4 9 10 10 16 19 18 20 21 20 20 19 18 18 20 20 21 21 20 21 22 22 21 21 20 18 18 18 18 19 19 19 19 19 19 17 17 16 15 15 14 14 14 13 12 11 10 9 9 8 8 8 8 7 6 5 4 3 3 3 4 4 4 3 3 3 4 4
8 2 1 2 2 3 3 2 1 0 1 3 3 5 6 6 4 5 8 5 5 5 5 3 2 6 5 6 6 4 10 14 18 19 18 18 20 21 20 19 19 18 18 20 21 21 21 20 21 22 22 21 20 19 19 19 17 17 18 18 18 18 18 17 16 15 15 14 14 13 13 12 12 11 10 9 9 8 8 8 8 7 6 4 3 3 3 3 3 4 4 4 4 3 3 4 4
2 3 1 1 2 5 3 2 1 1 2 3 3 6 6 4 3 6 9 8 5 4 5 6 7 8 8 7 5 3 11 18 21 19 17 18 19 20 19 17 17 18 18 20 21 21 21 21 20 21 21 20 19 19 19 18 18 17 18 18 18 17 17 16 16 15 14 14 13 13 12 11 11 10 10 9 9 8 8 8 7 6 4 3 2 2 2 3 3 3 3 3 3 3 3 3 4
2 2 2 3 4 4 3 2 2 2 2 3 3 4 5 4 5 5 8 8 5 5 6 8 10 9 9 6 3 7 15 18 19 19 18 18 18 19 17 16 17 19 19 20 21 21 22 22 19 19 19 18 17 18 18 17 17 17 17 17 17 16 16 15 15 14 14 13 12 12 11 11 10 10 10 9 9 8 8 7 6 4 3 1 1 1 1 2 2 2 2 2 2 2 2 3 4
1 1 3 4 2 3 4 4 4 4 3 3 4 2 3 5 6 6 8 8 6 7 3 3 7 7 7 4 3 11 16 15 18 19 18 17 18 18 17 18 18 18 19 19 20 21 20 21 19 17 17 17 16 16 16 16 16 16 15 15 14 14 13 13 13 12 12 12 12 11 11 10 10 10 9 9 8 8 7 5 4 3 2 1 1 1 1 0 1 1 2 3 4 3 2 3 3
1 3 4 3 1 3 5 4 4 5 3 4 4 2 5 4 6 9 8 8 6 4 1 4 8 5 5 4 5 9 11 14 19 19 18 18 19 19 19 19 19 17 17 17 18 19 19 19 18 17 16 16 16 16 15 15 14 14 14 13 13 12 12 12 12 12 11 11 11 10 10 10 9 9 9 8 7 7 6 5 3 2 3 3 3 3 3 3 3 3 4 4 5 5 4 3 3
4 2 4 3 1 4 4 4 4 5 3 4 3 3 5 2 4 8 10 11 4 1 5 7 7 6 6 6 6 5 9 17 20 19 18 18 19 19 20 20 19 17 16 16 16 16 17 17 17 16 15 15 15 15 14 14 14 13 13 12 12 12 12 12 12 11 10 10 10 10 10 9 9 8 8 7 6 6 5 4 3 3 4 4 5 5 5 6 6 6 6 6 6 7 6 5 4
6 1 4 4 3 3 2 3 6 6 4 5 5 5 4 2 4 4 6 9 3 3 7 7 4 4 5 6 7 7 13 21 20 19 18 18 19 19 20 20 19 18 16 16 16 16 16 16 17 16 15 15 15 15 14 13 12 12 12 12 12 12 12 11 11 10 10 10 9 9 9 9 8 7 7 6 6 5 5 4 4 4 5 5 6 6 6 7 6 6 9 8 8 9 8 7 6
4 2 4 3 4 4 2 3 5 5 4 4 6 6 5 3 5 2 1 5 7 6 3 4 3 2 6 5 7 14 21 23 21 20 19 18 19 18 19 20 19 18 17 16 17 17 17 17 17 17 16 15 15 14 14 13 12 11 11 11 11 11 11 11 10 10 10 10 9 9 9 8 8 7 6 5 5 5 5 5 5 5 5 6 7 8 9 9 6 6 10 9 9 10 10 9 7
2 3 2 2 4 5 5 5 5 5 4 6 6 6 6 4 3 2 4 8 10 8 1 3 0 3 8 7 15 23 25 24 23 23 20 20 19 18 19 19 19 19 18 17 17 18 17 17 17 17 16 15 15 14 14 13 12 11 11 11 11 11 11 11 10 10 10 10 9 9 9 8 8 7 6 6 6 5 5 5 6 6 7 7 7 8 11 11 7 6 10 11 9 9 11 11 8
3 3 2 1 4 5 7 10 7 6 8 10 8 7 9 8 6 4 7 7 7 7 4 5 5 6 10 15 24 25 24 25 24 23 20 19 19 19 19 19 20 19 19 18 18 18 18 18 18 17 17 16 15 15 15 14 13 12 12 12 12 11 11 11 11 11 10 10 10 9 9 9 8 7 7 7 6 6 6 6 7 7 7 8 8 9 12 12 10 7 9 11 10 9 11 11 9
3 3 2 3 5 5 7 11 8 8 11 11 9 9 8 7 9 6 7 7 6 7 5 6 8 8 12 19 25 23 23 24 22 22 19 18 18 18 19 20 20 19 20 20 19 19 19 19 18 18 18 17 17 16 16 15 14 13 13 13 12 12 12 12 12 11 11 11 10 10 9 8 8 7 7 7 6 7 7 7 7 8 8 8 9 11 12 13 13 11 10 12 12 11 11 10 9
2 4 2 5 6 4 5 11 10 10 14 13 11 9 6 5 7 6 8 9 5 6 6 7 9 10 12 16 20 22 21 21 21 20 18 18 17 18 19 20 21 21 22 21 20 20 20 21 20 19 19 19 18 17 17 16 15 14 14 14 13 13 13 12 12 12 11 11 10 10 9 8 8 8 8 8 8 9 9 8 8 9 9 9 10 11 13 14 14 14 12 12 12 12 11 10 9
1 4 4 6 5 4 5 12 11 10 14 15 12 9 7 6 5 6 12 10 2 6 8 7 12 15 15 15 17 20 19 18 19 18 17 17 16 17 18 20 20 22 23 21 21 21 21 22 21 21 20 20 19 18 18 17 17 15 15 14 14 14 13 13 12 12 11 11 10 9 9 9 9 9 9 9 9 10 10 9 9 10 10 10 11 12 13 13 13 13 12 11 10 9 9 10 9
2 3 6 5 6 5 6 11 11 11 11 12 13 11 9 7 5 9 14 10 5 8 9 9 13 15 16 16 17 17 16 16 16 16 16 16 18 18 18 19 19 20 21 22 23 22 22 22 22 22 21 20 19 19 18 18 18 16 16 15 15 14 14 13 13 12 12 11 11 10 10 10 10 10 10 10 10 10 11 11 11 11 11 11 11 12 12 12 12 11 11 10 8 8 8 9 9
2 5 4 7 7 6 7 10 12 14 12 13 14 10 9 8 5 9 10 4 4 6 11 12 14 16 18 17 15 14 14 14 15 17 18 18 19 19 21 21 20 21 22 22 24 23 22 22 23 23 22 22 20 20 19 19 19 17 16 15 15 15 14 14 13 13 12 12 11 11 11 11 11 11 11 11 10 11 12 12 12 12 12 12 12 12 13 12 11 10 10 9 9 8 8 8 8
4 5 4 7 7 9 10 12 13 15 16 13 11 10 12 11 8 9 5 3 3 10 12 13 14 18 19 16 13 13 14 14 16 19 19 20 21 21 21 21 22 22 22 22 23 23 23 23 23 23 23 23 21 20 20 19 19 18 17 16 16 15 15 15 14 13 12 12 12 12 12 12 12 12 12 11 11 11 12 12 12 12 13 13 13 13 13 12 11 10 10 9 9 9 9 9 9
5 6 4 5 6 10 12 13 14 13 11 10 11 12 11 8 8 8 3 1 7 12 13 13 15 16 15 15 14 13 12 14 16 17 18 18 19 19 19 20 21 21 23 23 24 24 24 24 23 23 24 23 22 21 20 20 19 18 18 17 17 16 16 15 14 13 12 12 13 13 13 13 13 13 13 12 12 12 12 12 12 13 13 13 13 12 12 12 12 11 10 10 9 10 10 9 9
5 5 3 7 7 11 14 13 13 11 8 10 14 10 5 6 8 4 2 5 10 12 14 14 15 14 13 13 14 13 12 13 16 17 17 17 18 19 19 21 21 23 25 24 24 25 25 24 24 24 24 23 23 22 21 20 19 19 18 18 17 16 16 14 14 14 13 13 14 13 13 13 14 14 14 13 13 13 13 13 13 13 13 12 12 11 11 12 12 11 11 10 10 11 10 9 9
3 3 4 8 10 10 13 13 11 10 8 13 15 8 6 8 6 2 4 8 11 13 14 13 14 14 13 11 11 12 12 15 18 18 17 17 18 20 20 21 22 24 25 24 25 26 25 25 25 24 24 23 23 23 22 21 20 20 19 18 17 16 15 15 15 15 15 14 14 14 14 14 15 15 15 14 14 14 13 13 12 12 13 11 11 11 11 11 11 12 12 10 10 11 11 10 9
5 9 9 8 9 8 10 13 11 8 6 9 12 8 5 4 1 3 9 11 13 15 14 14 14 12 12 12 10 10 11 16 19 18 16 17 19 21 22 23 24 24 25 26 26 26 26 26 26 25 24 24 24 23 22 21 21 20 19 18 17 16 15 16 16 16 15 15 14 14 14 14 15 15 15 15 15 15 14 14 13 12 13 12 12 12 11 11 12 12 11 9 8 8 9 10 10
5 9 11 6 8 8 7 10 11 10 6 8 12 8 4 5 4 5 10 12 13 14 14 13 12 11 11 11 9 8 10 15 17 16 18 20 21 23 24 25 26 25 26 27 26 25 26 26 26 25 24 25 24 23 22 21 21 19 18 18 17 17 17 17 16 16 16 14 14 14 14 15 15 16 16 16 16 16 15 15 14 13 13 13 14 14 11 10 10 10 10 9 8 8 8 8 8
3 6 8 6 7 5 5 5 8 8 8 13 12 3 6 8 4 7 11 12 14 13 12 12 10 10 9 9 9 8 11 13 15 17 20 21 22 24 25 26 27 27 27 26 25 26 26 26 26 26 25 25 25 23 22 21 20 19 19 18 17 18 18 17 16 16 15 15 15 15 15 16 16 16 16 17 17 17 16 15 15 14 13 14 14 12 10 9 8 8 8 8 7 7 8 8 7
5 6 4 3 5 6 6 4 8 8 7 12 7 2 7 7 5 10 12 13 16 14 13 12 10 9 9 9 9 9 10 13 17 20 22 22 24 25 26 26 27 27 26 26 27 27 26 26 26 26 26 26 25 24 23 21 20 19 18 18 17 18 18 17 17 16 15 15 15 15 15 16 16 16 16 17 17 17 17 16 16 13 12 14 12 9 8 7 6 6 6 6 6 6 8 7 7
3 5 1 1 3 7 6 5 8 8 9 7 3 1 4 4 7 10 11 13 15 14 13 12 11 11 10 9 9 9 9 13 18 22 24 25 26 26 27 27 27 28 27 27 28 27 27 27 26 26 26 26 25 24 23 22 21 19 18 17 17 17 17 17 16 15 15 15 15 15 16 16 16 16 16 16 16 17 17 16 15 12 10 13 11 6 6 5 4 4 4 5 6 6 7 8 8
2 3 5 4 2 6 5 4 4 4 9 7 0 3 2 1 7 10 11 13 12 12 12 13 12 12 11 9 9 9 9 11 14 19 24 26 26 27 27 28 28 29 29 29 28 27 27 27 26 26 26 26 25 24 23 23 22 20 18 17 17 17 17 16 15 15 15 15 15 15 16 16 15 15 14 14 15 16 16 14 12 10 9 9 7 4 4 4 4 5 5 6 6 7 7 9 8
2 2 4 4 3 6 5 4 4 3 8 8 3 5 3 3 10 11 12 13 12 11 12 13 12 11 10 10 9 9 10 10 11 17 24 26 27 28 28 28 29 29 30 29 28 28 28 28 27 27 26 26 25 25 24 24 23 21 19 18 18 18 18 17 16 15 15 14 14 14 13 13 14 13 13 13 13 12 12 10 8 7 7 6 4 4 5 5 6 7 8 7 7 8 8 9 9
7 4 4 3 3 6 7 6 7 9 9 7 4 4 3 5 11 12 12 13 12 12 12 12 12 12 11 10 10 10 11 11 13 19 25 27 27 28 28 27 28 28 29 29 29 28 28 28 28 27 27 26 26 25 24 24 24 23 21 20 20 20 19 18 17 16 14 14 13 12 10 10 11 11 10 9 9 8 7 7 6 6 6 5 4 5 6 7 8 9 9 9 9 8 8 9 8
10 7 5 6 4 6 8 4 5 12 10 6 6 6 6 9 12 13 13 13 12 11 11 10 11 11 10 10 10 10 11 12 16 23 26 27 28 29 29 28 28 28 28 28 28 28 28 28 28 28 28 27 26 26 25 25 25 25 24 22 22 22 21 19 18 17 15 14 13 10 9 9 9 8 7 8 8 7 6 6 6 6 6 5 5 6 8 10 9 10 10 9 9 9 8 7 7
9 6 4 6 5 5 6 3 3 10 9 7 6 5 7 11 13 14 13 12 12 11 11 10 11 10 10 11 11 12 12 13 17 22 25 27 28 29 29 29 28 27 27 27 27 28 29 28 28 29 28 28 28 28 27 27 26 26 25 25 24 23 21 20 18 17 15 14 12 10 9 9 8 7 8 9 7 7 6 6 6 6 5 5 6 8 10 10 9 10 9 8 9 8 8 5 5
7 7 5 6 5 5 5 2 4 7 7 4 5 6 7 9 12 12 12 13 14 15 14 13 13 12 11 12 13 13 12 11 12 16 21 25 26 28 29 29 28 28 28 28 29 30 30 29 29 29 29 29 29 29 28 28 27 26 25 25 25 23 22 20 17 16 14 13 12 11 10 8 8 9 10 9 8 7 7 7 7 6 6 6 8 9 9 8 8 8 8 7 7 7 6 2 4
5 4 5 5 5 4 3 2 4 5 3 3 4 6 4 4 8 11 13 16 15 14 14 13 13 12 11 12 13 13 11 9 10 12 17 23 25 27 28 28 30 31 31 31 31 31 31 30 31 30 30 30 30 30 29 28 27 26 25 24 23 22 20 18 17 15 14 13 12 12 10 8 9 10 11 10 9 8 8 7 7 5 4 6 8 9 7 6 6 6 6 5 5 5 3 0 3
4 4 5 3 4 5 3 3 5 3 1 2 5 3 2 0 4 8 12 13 10 10 11 10 11 13 14 15 13 13 13 11 11 11 14 19 23 25 27 29 31 31 30 31 32 32 32 32 33 32 31 31 31 30 29 29 27 25 24 23 20 19 18 17 16 16 14 13 12 12 11 10 10 11 11 10 9 8 8 6 5 4 4 6 7 6 5 4 4 4 4 3 3 3 2 0 2
3 4 6 3 4 7 4 4 5 2 3 2 6 4 5 3 7 8 9 9 8 8 10 10 10 12 12 12 11 12 13 12 12 12 12 15 20 25 28 30 30 30 31 32 33 34 34 35 35 34 33 32 32 31 30 29 27 24 22 20 18 17 17 16 16 16 15 13 13 13 12 11 11 12 11 10 9 8 7 5 5 4 4 4 4 4 4 3 3 2 2 2 2 2 2 1 2
3 5 7 7 7 7 8 10 8 3 2 3 5 2 6 4 8 10 7 9 11 8 10 13 12 12 11 9 11 12 12 11 12 13 13 14 19 24 27 29 30 31 33 35 36 37 37 37 37 36 35 34 33 32 31 30 28 26 24 22 20 18 17 17 17 17 16 15 14 13 12 11 11 12 11 10 8 7 6 5 5 5 4 3 3 4 3 3 3 2 2 1 1 1 2 2 2
3 6 9 9 8 8 11 13 9 4 4 4 6 5 5 4 7 10 8 10 13 10 11 14 13 12 11 10 11 11 11 11 11 11 12 14 18 21 24 28 31 32 35 37 36 37 37 37 38 37 37 36 35 34 32 31 30 29 28 26 24 22 20 19 18 17 15 14 13 12 11 11 11 11 10 9 7 6 6 5 6 6 5 4 4 4 4 3 2 3 2 2 1 1 1 2 2
4 6 9 10 8 9 12 12 8 5 2 1 4 4 1 4 6 8 10 9 11 12 14 14 13 14 14 13 13 13 13 13 11 11 12 14 18 22 25 29 33 35 36 36 35 36 37 37 37 37 37 36 36 35 33 32 32 31 30 28 27 25 23 21 18 16 15 14 13 12 11 11 11 11 9 8 7 7 7 7 7 7 6 5 4 5 4 3 2 3 2 2 1 1 1 1 1
6 5 9 8 8 9 11 10 6 4 4 1 4 2 1 5 6 3 9 10 11 15 18 17 16 16 16 15 15 14 14 14 13 14 14 15 19 24 28 30 33 35 35 35 36 37 37 37 37 37 37 36 36 35 34 34 33 32 31 29 27 25 23 21 18 16 16 15 14 12 12 12 12 11 10 9 8 7 7 7 8 8 7 6 5 5 5 4 3 3 2 1 1 2 2 2 2
5 6 7 5 5 5 6 7 4 4 4 5 7 6 4 5 5 2 6 8 13 16 17 18 17 16 16 16 16 15 14 13 13 14 14 17 22 27 28 29 31 33 33 35 36 36 36 36 36 36 36 36 36 35 35 34 33 33 32 30 27 25 23 20 18 18 17 16 15 14 13 13 12 11 11 10 9 8 8 8 8 8 7 6 5 4 4 5 4 3 2 2 2 2 3 3 3
5 8 7 7 6 4 2 2 4 4 2 7 10 12 8 5 5 4 6 10 16 16 14 14 15 15 16 16 16 16 14 12 13 13 13 18 23 25 25 26 28 30 31 32 33 34 35 35 35 36 36 36 35 35 34 34 34 33 32 31 28 26 23 21 20 20 19 18 17 16 15 14 12 12 12 11 10 9 9 9 8 8 7 6 5 4 4 3 3 3 3 2 2 2 3 3 3
7 6 5 4 3 4 4 5 3 4 4 7 9 9 6 6 6 6 11 15 17 16 14 15 17 18 17 16 16 16 15 13 13 13 13 14 16 18 22 24 26 28 29 30 32 33 34 34 35 35 35 35 35 34 34 34 34 34 33 31 29 27 25 24 23 22 21 20 19 17 16 15 13 13 13 12 11 10 10 9 9 8 7 6 6 5 5 4 3 3 3 3 3 2 2 3 3
6 5 5 5 1 2 2 1 1 3 6 6 5 8 3 7 9 9 12 14 14 14 16 16 18 19 18 17 17 15 13 14 13 13 13 12 12 15 20 23 25 27 29 32 33 33 33 34 35 35 35 34 34 34 34 34 34 34 33 32 30 28 26 26 25 24 23 22 21 19 18 17 16 15 15 13 12 11 10 10 9 8 7 7 7 6 6 5 3 3 3 4 4 4 3 3 3
6 6 6 5 3 2 2 3 0 2 6 4 5 9 4 6 7 10 13 17 16 15 17 14 12 16 18 17 16 14 14 15 14 13 14 13 13 16 21 24 25 28 30 33 34 34 34 34 34 35 35 34 34 34 34 34 34 34 33 32 30 28 27 27 27 26 25 23 22 21 20 19 18 17 16 15 13 12 11 10 9 9 8 8 7 7 7 6 5 4 3 4 4 4 4 4 4
6 5 6 6 5 5 4 4 3 4 3 2 3 5 5 4 5 8 12 13 13 13 13 8 6 10 14 12 12 13 14 15 13 14 15 14 16 20 23 25 27 29 30 31 32 33 33 34 35 36 35 35 34 34 34 34 34 34 33 32 30 29 28 28 27 27 26 24 22 21 20 19 18 17 16 15 13 12 11 10 10 10 9 7 7 6 6 6 5 5 4 4 4 4 4 5 5
4 3 5 5 7 6 3 4 6 5 2 1 2 3 5 5 6 7 4 4 7 11 9 6 7 9 10 9 11 12 13 14 13 14 15 15 18 22 24 25 28 29 30 31 32 33 34 35 36 37 36 36 35 35 35 35 35 34 33 32 31 29 29 28 28 27 26 24 23 21 20 19 18 17 16 14 13 13 12 12 11 10 8 7 6 5 5 6 6 6 6 6 5 5 5 6 6
3 3 4 5 6 7 4 2 2 3 2 2 2 3 3 2 7 9 4 5 9 9 8 10 10 8 10 10 11 12 13 14 14 14 15 15 16 21 25 27 28 29 30 33 35 36 38 38 37 37 36 35 36 37 37 36 36 35 34 33 31 30 30 29 28 28 26 24 22 20 19 18 18 17 16 14 13 13 13 12 11 9 8 8 7 6 6 7 7 7 8 9 8 8 8 7 7
5 4 7 3 3 3 3 2 1 3 2 4 2 5 4 2 4 7 3 7 12 12 11 10 7 8 11 12 12 13 15 15 15 15 15 14 15 20 25 28 31 33 35 37 39 39 38 37 37 37 36 37 38 38 38 37 37 36 35 34 33 32 31 30 29 27 25 24 22 19 19 19 19 18 16 14 14 14 14 13 11 10 9 9 9 9 9 9 9 10 10 11 10 10 11 10 10
3 4 6 5 3 1 1 3 2 2 3 3 3 4 4 5 5 5 5 11 14 15 12 8 8 11 12 12 13 14 15 14 14 14 13 13 14 19 25 28 30 34 35 37 38 36 34 35 36 37 38 39 39 37 37 37 37 37 37 36 35 34 33 31 29 27 25 23 21 19 19 20 19 18 16 15 15 15 15 14 13 12 11 11 10 10 10 11 11 12 12 12 11 11 12 12 12
3 3 4 2 3 5 3 3 4 4 4 3 2 2 3 6 7 8 11 14 15 15 12 9 11 14 14 13 13 14 14 13 13 13 13 14 15 21 27 30 32 35 37 36 35 34 35 36 36 36 37 36 35 35 35 36 36 37 36 36 35 34 33 31 29 27 25 23 21 20 20 20 19 18 17 17 17 17 17 16 15 14 13 12 12 11 11 12 12 12 13 13 12 12 12 13 13
3 3 4 2 1 3 2 1 3 4 4 4 3 3 5 7 6 10 14 14 14 15 13 12 13 14 15 13 12 12 13 13 13 13 14 15 16 21 27 30 32 33 33 31 31 33 35 35 35 36 35 34 35 35 35 36 37 36 36 35 34 33 32 31 29 27 25 22 20 20 20 20 19 19 18 18 19 19 18 18 16 16 15 14 14 13 13 13 12 13 13 14 14 13 13 14 15
8 6 6 6 4 3 2 4 1 2 3 4 5 4 7 7 6 10 13 12 12 13 12 12 12 13 13 11 12 14 14 14 15 14 15 15 14 18 24 27 28 27 27 29 31 33 34 34 36 36 36 36 36 36 37 37 37 37 38 38 36 34 33 31 29 27 24 22 21 20 20 20 20 20 19 19 20 20 20 19 18 17 16 15 15 15 15 15 15 15 15 15 14 14 14 15 16
Wind_Direction
153 153 149 148 147 144 145 200 54 358 74 70 347 33 325 22 94 95 104 118 114 31 35 66 72 90 98 114 126 100 49 30 134 124 141 153 148 152 141 136 134 128 122 115 117 120 122 126 130 134 134 135 133 132 134 136 138 145 146 144 145 146 145 141 137 133 133 135 136 139 141 145 145 143 139 136 133 128 124 121 120 119 120 122 123 123 121 117 113 108 105 103 102 99 96 93 90
154 152 149 146 150 151 22 66 79 10 55 55 322 14 307 1 61 84 111 121 106 102 88 84 75 72 90 110 125 100 46 38 94 100 106 133 137 144 134 130 133 131 127 123 120 123 123 124 127 128 131 136 135 133 136 137 139 142 142 142 143 144 144 141 138 135 135 139 140 142 144 147 145 141 138 136 131 127 125 124 123 123 124 125 125 124 120 117 112 107 105 103 99 93 90 82 76
155 151 147 147 148 148 34 49 89 82 69 89 303 285 331 29 74 74 90 107 118 124 105 94 81 67 81 85 57 55 65 73 101 103 116 135 136 145 138 126 129 132 133 131 125 126 126 122 122 125 128 132 133 134 136 137 139 138 137 138 138 138 139 139 138 136 138 142 144 146 147 146 143 139 137 135 131 129 130 130 129 129 129 128 128 125 121 118 112 108 104 100 95 86 79 66 60
154 151 148 150 59 23 53 50 111 110 107 151 266 262 134 95 116 91 89 111 127 121 97 89 66 30 65 80 54 68 96 104 108 111 128 146 148 148 140 130 132 133 136 135 129 127 127 125 125 127 127 127 128 132 135 136 136 136 136 135 133 134 136 138 138 137 139 143 146 149 148 145 141 138 137 135 134 135 137 136 134 133 132 131 130 126 122 117 111 108 100 94 88 74 63 48 39
150 154 154 152 47 69 73 83 99 96 160 170 174 236 134 128 126 104 90 90 98 81 85 96 77 58 73 80 58 90 107 116 114 105 122 145 148 146 141 137 136 133 135 135 132 130 128 128 128 130 129 127 128 131 134 134 133 133 132 132 131 130 132 134 134 134 138 144 148 149 146 144 141 139 138 138 139 140 141 140 137 136 133 131 128 125 121 116 111 104 94 86 77 62 49 35 20
145 154 161 7 72 176 83 93 104 94 207 167 156 182 135 140 129 111 94 67 58 64 81 87 104 114 84 65 50 89 137 128 122 120 133 144 148 148 144 141 137 133 137 136 133 133 130 129 130 132 131 129 129 130 132 132 132 132 131 132 131 129 130 132 132 136 143 148 150 148 146 145 143 141 142 142 143 144 143 142 140 137 133 131 128 124 119 114 109 99 89 79 67 53 37 16 358
144 143 139 41 61 66 87 120 155 172 209 152 161 150 143 145 131 116 102 83 65 55 69 93 119 109 79 99 74 66 117 123 134 146 145 146 149 147 145 142 137 136 140 137 134 134 132 130 133 133 132 131 130 130 130 130 131 133 135 136 135 134 138 139 141 144 147 149 149 149 148 148 146 146 147 147 149 148 147 145 143 140 137 135 128 119 110 104 100 89 80 70 55 39 22 359 348
145 128 48 104 57 30 85 110 139 183 65 57 116 136 143 143 139 116 101 96 90 73 88 109 123 94 60 80 96 67 92 117 139 143 145 145 147 146 146 144 139 139 142 139 136 136 133 132 136 135 134 132 130 130 131 130 132 135 136 138 137 138 143 145 146 145 147 148 148 150 151 151 151 151 152 153 153 151 150 149 147 147 143 137 128 117 106 100 91 81 72 62 47 29 13 360 349
141 69 57 101 79 65 76 59 62 319 41 85 101 120 129 135 133 110 102 82 102 109 100 124 107 99 100 88 98 82 92 121 135 136 141 144 149 149 149 146 140 140 142 141 138 138 135 133 136 135 135 132 131 132 134 134 136 137 138 140 141 142 144 145 146 146 147 148 148 149 150 151 153 154 156 157 157 156 154 154 154 152 146 142 133 119 105 96 84 73 62 50 40 24 8 357 342
86 18 126 99 82 84 74 26 30 13 45 89 103 126 131 133 107 106 110 98 103 101 87 87 82 108 122 102 91 102 115 129 132 133 141 145 152 152 150 147 143 142 143 143 140 139 136 135 137 136 134 132 133 135 137 139 140 141 142 144 144 144 144 145 146 147 148 148 150 150 151 153 155 158 160 161 161 162 160 161 160 155 153 152 133 105 88 84 77 66 50 37 26 9 357 345 328
46 355 112 75 76 109 142 95 85 81 69 82 97 128 128 127 109 97 106 101 82 94 113 89 91 115 110 100 88 121 129 130 133 137 144 149 155 156 153 150 149 146 145 146 143 141 139 138 140 140 137 136 137 139 141 142 143 144 144 145 144 144 144 145 146 147 148 149 151 152 154 155 159 162 164 166 166 166 165 166 165 166 174 175 116 76 72 82 74 62 41 11 355 349 345 323 311
59 198 94 89 116 145 162 131 120 107 89 120 151 167 129 133 123 117 112 110 107 111 135 101 131 138 95 97 116 129 134 132 137 141 145 152 158 161 157 152 153 149 147 149 146 144 144 142 143 145 142 142 143 144 145 145 146 146 145 145 144 145 145 147 149 148 150 151 152 153 155 158 162 165 167 169 170 171 171 175 180 192 228 290 327 339 328 349 354 9 12 353 339 329 326 315 308
148 173 104 96 155 129 132 127 132 118 120 179 180 161 130 138 142 137 117 111 119 118 113 117 147 139 94 117 120 136 143 140 143 143 147 153 160 163 160 157 156 154 151 151 148 147 149 146 147 149 148 148 149 149 150 150 149 148 147 147 147 148 150 152 154 154 155 155 156 157 158 162 165 168 170 172 174 177 182 192 207 242 281 303 312 312 321 324 321 330 336 337 323 307 304 308 308
177 174 116 101 95 115 122 123 145 147 177 202 165 139 136 124 155 145 124 122 115 130 120 115 130 104 105 137 134 160 153 149 148 146 151 156 161 163 163 164 162 160 155 155 152 152 151 150 151 152 154 154 154 154 155 154 153 152 151 151 151 152 154 154 157 158 159 160 162 162 163 166 169 172 175 178 181 188 201 212 229 257 279 297 305 313 326 315 316 325 318 316 309 303 306 302 299
178 110 99 105 107 114 130 152 155 159 199 199 154 139 125 70 133 133 119 126 108 131 119 116 133 98 149 172 159 173 156 153 151 149 154 155 159 160 163 166 167 167 161 160 160 160 158 157 159 158 162 162 161 161 159 159 157 157 156 156 156 155 156 156 160 162 165 167 167 169 169 171 174 178 181 187 193 205 219 229 246 259 280 297 307 314 310 298 311 319 304 306 311 310 308 303 298
164 90 83 92 139 158 182 156 136 154 210 188 152 131 99 83 134 129 78 113 122 146 127 136 191 131 159 176 153 156 153 154 152 151 152 150 155 156 161 166 168 170 167 169 167 168 166 164 166 165 169 168 168 167 163 164 163 163 160 160 159 158 161 162 167 169 172 173 174 176 176 178 180 182 187 197 204 219 233 245 259 270 287 296 306 305 295 294 314 314 302 311 320 317 310 312 314
111 84 81 77 162 179 174 168 163 171 183 159 158 140 123 137 143 85 91 107 127 140 59 106 163 114 141 141 141 149 152 153 150 149 148 148 155 155 160 166 168 172 173 177 175 175 173 171 171 170 172 173 173 172 170 169 167 169 166 166 166 166 170 172 176 177 179 179 179 183 182 186 187 190 197 205 214 228 244 260 272 283 290 293 300 297 293 299 311 311 309 316 322 316 311 322 333
85 95 116 147 183 191 176 177 180 155 158 163 167 156 149 153 141 114 104 104 115 104 71 83 57 79 114 127 139 148 152 151 149 148 149 152 157 158 163 169 172 176 178 181 182 181 179 178 177 176 177 178 179 178 177 174 171 175 175 175 175 177 179 180 184 183 185 185 186 191 192 196 197 202 212 215 224 235 250 265 277 284 289 293 296 295 293 299 306 308 311 314 318 316 314 325 335
105 116 132 220 197 200 180 170 173 155 159 161 158 157 163 160 142 144 132 133 128 99 96 99 86 93 113 129 142 151 152 151 152 151 155 158 161 162 166 172 175 180 182 184 185 185 185 184 183 183 182 183 184 183 182 179 178 182 182 182 182 184 185 187 191 190 192 192 194 199 200 206 208 214 225 231 240 245 254 263 273 282 287 294 298 300 301 307 312 312 314 314 318 318 317 324 330
157 122 150 239 196 180 173 166 176 166 154 150 156 157 162 179 155 151 141 139 141 135 151 134 128 138 135 139 148 155 155 154 157 157 161 163 165 166 168 174 179 184 186 187 187 187 190 189 188 188 188 188 188 188 186 184 184 187 187 188 189 190 191 194 197 198 200 201 202 207 209 215 220 225 233 241 248 251 258 265 275 286 292 297 300 303 307 310 311 311 313 312 313 315 316 322 327
152 147 187 228 172 155 181 170 170 160 154 150 152 149 152 183 166 149 140 134 176 190 186 164 152 153 147 149 154 159 158 157 161 162 164 164 168 171 173 177 182 187 188 190 191 190 192 193 192 191 192 192 192 192 190 189 190 191 193 194 194 195 198 200 203 206 206 209 213 216 219 223 228 234 241 247 254 259 266 273 281 291 297 302 303 303 304 306 306 310 314 312 310 309 311 317 319
148 226 209 195 154 161 184 164 153 151 151 144 149 156 160 166 163 164 150 145 209 199 181 161 153 153 151 153 155 159 160 159 165 168 168 168 172 175 178 180 183 187 189 193 195 194 194 195 196 195 195 197 197 197 195 195 196 196 197 199 200 201 204 206 208 211 213 216 221 224 227 230 236 242 248 253 257 264 270 277 285 293 299 303 303 302 302 302 305 309 312 314 313 309 311 314 314
185 265 223 182 164 154 158 149 148 149 150 155 160 157 151 147 160 175 163 177 219 160 151 151 149 149 149 151 154 159 163 165 170 173 175 174 176 179 180 183 185 187 190 195 198 198 198 198 199 198 199 200 200 200 199 200 201 202 202 204 207 208 210 213 214 216 218 221 226 231 234 237 243 249 255 259 263 269 274 280 286 292 296 298 299 299 297 298 302 306 308 309 310 310 312 311 311
208 261 241 190 174 151 148 149 154 156 159 163 151 142 159 162 161 174 196 277 153 125 133 142 143 146 147 152 159 163 167 171 176 178 180 180 182 183 183 186 188 190 193 197 201 200 201 200 200 201 202 203 203 203 203 205 207 208 208 210 213 214 216 219 220 222 225 229 232 235 241 246 249 253 258 264 270 274 278 281 285 289 291 294 296 295 293 294 297 300 301 301 304 307 307 307 306
207 239 240 176 163 149 145 148 154 157 156 146 139 153 171 162 138 158 207 89 120 123 130 137 141 147 152 159 162 165 169 174 178 179 182 186 185 185 187 189 190 193 196 198 202 202 202 202 202 203 205 205 206 207 207 209 212 214 215 216 217 219 222 225 228 230 233 237 240 241 245 251 254 258 263 268 274 275 277 280 282 286 291 296 298 294 293 292 292 295 294 292 295 298 300 303 304
213 222 190 143 140 144 143 145 152 151 147 142 146 155 149 123 113 125 194 128 125 127 133 141 146 153 160 164 166 166 170 174 177 180 183 186 184 186 189 191 193 196 199 200 202 203 204 204 204 205 207 208 209 210 211 212 216 218 220 221 222 224 228 231 234 237 240 242 245 247 249 253 258 263 267 271 273 273 275 276 278 282 286 293 298 296 294 292 290 291 288 287 294 297 299 300 302
202 142 94 118 127 137 140 141 147 140 148 156 150 147 139 139 126 141 176 141 134 134 139 149 152 158 164 167 170 169 173 179 180 179 180 181 183 187 189 191 195 199 201 201 204 206 205 206 206 207 209 210 211 213 215 216 218 221 223 225 227 229 233 237 240 243 244 245 248 251 253 256 261 265 270 272 272 273 273 273 276 279 281 285 293 292 288 285 280 280 282 290 302 304 304 301 301
129 116 72 74 106 116 133 136 145 135 143 160 136 118 130 153 202 180 163 148 144 144 148 157 158 165 167 168 171 172 180 182 180 180 180 182 185 187 188 191 195 199 202 203 206 207 206 208 208 209 210 211 213 215 216 218 219 222 225 229 231 232 235 239 243 246 246 248 251 253 256 258 263 267 269 271 272 273 273 273 274 274 277 283 286 279 273 276 279 287 299 309 313 311 312 308 303
122 112 84 69 89 110 145 137 150 147 142 149 120 95 151 208 244 158 149 149 146 146 154 161 164 168 169 170 171 176 185 183 183 187 189 189 189 189 190 194 195 198 203 205 206 206 208 209 209 210 210 212 215 215 217 219 220 224 227 231 233 234 236 239 243 246 247 250 252 254 257 259 263 265 268 271 273 274 274 273 272 269 273 278 279 275 272 280 291 309 321 323 326 327 324 320 310
86 78 95 111 89 133 193 147 150 141 149 158 132 104 213 224 228 149 151 151 145 149 161 166 168 171 174 174 173 181 187 185 188 194 196 195 194 194 196 198 199 201 204 205 206 207 208 209 210 212 211 213 216 217 219 221 223 225 228 232 234 235 237 239 243 247 250 252 254 257 259 261 263 264 268 271 273 275 274 273 271 269 271 276 279 283 290 298 309 323 326 327 335 334 327 328 321
88 73 70 115 122 184 212 178 152 132 173 175 123 121 217 227 202 160 160 158 152 158 167 170 173 174 177 179 178 186 189 190 194 197 199 200 199 200 201 201 203 204 205 205 207 208 209 209 211 212 213 215 217 219 221 223 225 225 228 232 233 236 237 241 245 250 254 256 259 262 264 265 264 265 266 269 272 273 273 272 270 269 275 283 286 290 301 309 315 322 329 333 336 332 326 327 322
94 101 86 265 151 185 215 215 172 146 185 200 63 143 226 235 187 166 164 164 160 163 169 173 177 178 180 184 184 189 192 195 199 200 202 203 203 204 204 205 204 205 206 208 210 209 209 210 211 213 215 216 218 221 222 222 224 224 227 232 234 238 240 245 249 253 257 258 261 263 264 265 264 265 264 266 270 272 275 274 272 275 280 286 287 288 297 300 300 307 324 329 325 324 321 319 317
324 99 151 198 167 179 206 219 202 150 172 200 267 169 227 225 175 170 168 170 167 166 173 177 179 183 183 184 189 190 192 198 204 207 206 205 206 207 207 207 206 207 209 210 210 209 210 210 211 214 216 218 219 220 221 222 223 224 228 232 237 241 243 247 249 253 255 255 258 260 261 262 262 262 261 262 266 270 274 274 277 285 285 284 286 287 280 275 288 301 310 317 317 317 314 313 314
241 60 132 203 199 181 182 171 197 156 170 199 161 146 220 186 163 169 174 174 173 173 179 182 183 188 186 187 192 192 193 199 207 209 208 207 209 210 210 210 209 209 210 211 212 213 212 211 211 214 218 220 220 220 221 223 224 225 229 234 239 243 245 247 249 252 253 252 252 253 258 260 258 256 256 260 262 264 266 271 283 288 282 276 271 269 267 282 302 308 309 311 312 312 312 313 314
180 167 149 206 234 206 194 178 181 169 180 207 153 150 210 163 159 172 179 177 180 185 184 185 188 189 190 191 195 195 197 204 209 209 208 207 209 212 212 213 213 212 211 212 214 215 214 213 213 215 219 221 222 223 223 225 226 228 231 235 240 244 247 247 248 251 249 245 241 244 250 252 252 251 254 256 255 256 257 266 271 260 256 253 258 273 288 302 305 306 306 305 303 303 311 315 316
177 172 144 169 209 229 210 200 183 166 173 204 183 178 174 163 172 177 179 180 187 194 188 187 192 192 194 195 199 201 201 209 210 209 209 207 208 210 212 213 214 214 213 212 213 215 215 214 214 215 218 220 221 223 224 225 227 228 231 235 239 241 244 246 247 248 243 236 233 236 242 246 249 245 243 241 239 242 244 247 237 229 238 254 281 301 309 310 308 308 307 304 300 300 312 318 320
158 152 143 171 189 240 238 280 232 167 166 203 186 169 172 173 181 181 178 180 190 199 195 195 195 195 199 198 202 203 207 214 209 207 209 208 208 209 210 212 213 214 213 212 212 214 215 215 214 215 217 218 220 221 222 223 224 226 228 232 236 239 242 244 243 239 233 230 230 234 241 246 242 228 222 221 223 228 230 229 228 235 254 281 309 317 315 313 312 311 305 302 299 305 321 327 332
146 155 175 192 189 220 237 261 232 178 166 200 159 154 194 188 183 182 174 181 196 200 196 198 198 198 202 201 205 205 210 217 208 204 207 207 207 207 207 208 210 211 211 211 212 214 216 216 216 218 218 217 219 221 222 224 225 226 226 230 234 237 239 237 234 229 227 230 232 235 243 240 222 213 209 209 216 222 223 228 237 253 274 305 318 313 309 308 306 302 296 298 297 310 326 338 346
142 136 157 199 201 190 215 173 177 186 186 224 166 159 214 209 185 187 184 192 202 200 198 199 196 199 203 204 206 206 208 211 207 205 203 204 205 203 203 205 208 210 210 210 212 214 214 215 217 219 218 218 220 222 222 224 226 227 228 232 234 233 231 228 227 228 228 230 229 233 240 227 209 207 205 208 214 216 220 231 245 263 289 308 307 299 297 294 292 289 286 294 294 306 314 286 1
139 129 142 205 216 171 209 191 156 152 56 177 149 125 313 227 180 207 206 204 205 200 205 207 202 204 206 206 205 202 202 202 205 207 202 201 202 200 200 203 206 209 209 209 209 211 212 214 217 219 219 220 221 222 223 225 227 228 229 232 232 228 226 226 228 229 229 229 230 234 234 221 211 209 208 211 213 216 225 236 246 261 284 294 291 284 285 280 281 281 275 286 298 314 330 66 20
200 177 151 163 207 179 168 152 142 85 12 109 110 54 313 203 182 216 216 212 215 203 204 212 214 215 214 212 210 206 203 199 200 203 201 199 198 199 200 202 204 205 207 208 208 209 211 213 216 218 219 221 222 222 223 224 224 223 222 223 224 224 227 230 231 229 228 231 235 234 228 223 218 211 209 212 214 220 229 234 233 238 262 276 276 277 280 271 264 259 251 269 309 338 2 12 17
226 220 184 178 185 166 133 130 128 107 279 233 128 104 288 239 202 214 202 206 215 206 205 211 214 216 216 215 213 212 207 202 201 200 198 197 198 199 200 201 202 204 207 208 209 209 210 213 215 217 219 220 223 223 222 222 220 219 217 215 216 219 223 229 231 231 232 235 235 230 224 223 217 208 206 207 212 219 219 219 216 220 242 252 266 285 281 261 244 227 226 236 289 339 348 2 14
216 226 194 183 162 140 141 142 136 150 218 219 169 184 269 287 233 213 196 206 213 211 215 215 211 212 211 210 212 211 206 204 204 202 197 195 197 197 198 200 200 204 208 209 209 210 210 212 214 215 218 220 222 222 221 219 218 217 217 218 221 222 223 227 231 234 235 232 226 219 216 212 205 201 202 204 212 217 210 211 213 217 236 246 269 291 280 254 234 218 223 232 236 334 345 7 9
229 221 174 169 150 147 157 152 160 179 136 95 176 170 271 286 252 204 186 205 218 222 225 219 213 212 209 209 210 208 205 203 200 199 197 196 197 197 198 200 201 205 207 207 207 209 210 212 213 215 217 219 221 221 220 218 217 216 217 220 223 225 228 229 230 229 224 217 208 204 202 197 194 195 202 211 217 221 218 219 218 220 233 243 268 286 269 246 236 224 228 247 285 328 325 303 310
237 198 152 159 156 160 165 163 180 165 108 237 237 161 162 267 280 196 175 199 221 226 225 220 213 210 208 208 208 207 207 203 199 198 198 198 198 200 200 200 202 205 205 205 206 208 210 211 213 215 217 218 219 219 219 218 218 217 218 219 221 225 228 229 228 220 209 204 200 196 194 193 195 199 207 216 220 227 231 228 221 222 230 239 263 277 254 238 241 233 233 262 291 295 276 258 246
223 145 109 84 99 130 156 166 160 109 135 216 222 187 196 260 276 182 166 202 224 227 225 220 214 209 207 207 207 207 206 202 202 201 199 199 200 201 201 201 202 203 204 205 206 207 208 210 211 214 216 217 218 218 217 217 216 217 217 219 220 222 223 223 221 212 204 201 199 197 197 198 201 205 210 216 221 230 233 230 226 225 227 235 259 266 240 235 243 239 251 276 287 279 264 254 241
145 113 86 54 49 62 76 93 99 105 202 235 214 194 196 247 264 189 179 207 215 220 226 218 211 210 208 207 206 205 203 201 201 202 202 202 201 199 198 199 201 201 202 204 204 205 206 207 209 211 214 215 215 215 215 215 215 216 217 218 220 221 219 217 212 207 203 202 202 202 202 203 206 209 212 215 222 233 236 232 229 223 225 239 259 256 230 228 241 242 261 273 272 269 254 247 237
121 102 102 93 22 27 37 13 62 138 237 252 218 190 190 240 257 220 212 219 213 212 221 213 204 206 207 207 205 202 200 198 197 200 202 199 196 194 194 198 199 198 199 201 202 203 203 204 205 207 210 211 212 213 213 214 214 215 217 218 220 221 219 216 213 209 207 206 207 206 205 207 208 209 212 217 226 237 235 225 220 220 232 253 261 251 229 223 238 247 257 261 264 272 264 254 245
115 110 111 123 285 16 70 289 130 179 243 255 174 149 182 246 251 239 228 234 227 217 221 215 202 201 204 204 204 201 196 195 196 197 198 194 190 190 192 195 196 195 198 199 200 201 201 203 204 206 208 210 211 212 212 213 214 215 217 217 219 220 220 219 217 215 213 212 211 208 207 208 207 209 214 220 229 234 226 218 219 229 249 263 260 247 231 226 239 255 258 262 266 272 276 271 261
146 149 142 146 157 134 194 236 27 217 255 281 136 148 205 270 263 242 228 233 231 224 228 222 203 201 204 203 199 195 194 194 196 196 195 194 191 190 192 193 194 196 198 199 199 199 200 202 204 206 209 210 210 211 211 212 214 215 217 217 219 220 220 220 219 218 216 215 214 213 214 213 212 215 218 223 231 230 223 221 230 248 257 258 251 241 232 231 242 253 256 261 267 272 278 279 272
177 167 146 157 161 159 197 199 185 208 239 335 110 153 196 220 249 240 229 233 227 229 240 229 198 205 205 202 194 192 196 195 195 197 196 195 192 190 192 193 195 198 199 199 200 200 200 202 205 207 209 209 210 210 210 211 213 215 216 217 219 220 221 220 219 219 218 217 217 217 218 218 219 221 222 228 233 228 224 229 244 255 250 242 240 236 232 233 239 245 248 253 263 275 283 284 278
209 148 126 180 184 164 178 182 181 178 138 80 171 206 221 221 284 291 288 294 239 232 239 207 204 204 187 193 195 192 197 196 196 198 198 198 194 191 191 193 196 199 199 200 201 201 202 203 205 207 209 209 209 209 210 211 213 214 215 217 219 219 219 219 218 217 218 219 219 219 221 222 222 223 226 231 233 229 229 235 245 248 237 231 233 232 229 226 233 243 247 255 263 273 281 285 281
182 142 175 211 175 144 146 199 180 122 156 242 191 224 271 306 303 294 297 298 266 247 232 209 208 186 172 193 196 191 196 196 197 199 198 197 192 192 194 194 195 197 198 201 203 203 204 204 205 206 207 208 209 210 210 210 212 213 214 216 217 217 217 217 216 215 215 217 219 221 224 224 223 224 228 232 231 228 226 229 237 239 233 232 230 231 230 226 237 249 254 259 262 265 271 276 277
137 183 198 176 112 106 116 166 16 67 206 265 196 198 217 161 276 292 269 247 255 255 241 219 189 167 185 201 195 191 195 196 197 199 198 196 191 193 195 196 197 198 199 202 204 205 205 205 205 205 205 207 209 209 209 210 210 211 213 214 215 216 216 216 216 215 215 214 217 221 224 224 223 224 229 231 225 220 221 224 232 237 234 233 232 234 235 234 242 251 255 260 260 260 262 265 269
141 185 175 141 151 206 128 166 175 136 202 268 281 236 224 196 225 272 236 222 235 246 245 223 186 186 198 201 195 192 192 194 196 197 197 196 195 196 196 197 199 199 203 205 205 205 206 207 207 206 207 209 210 209 208 209 210 210 212 214 215 216 215 215 215 214 214 214 217 221 222 223 223 224 227 225 219 219 223 226 232 236 236 236 238 239 240 242 246 251 256 260 261 260 260 262 266
84 118 155 152 167 173 174 166 164 181 198 224 266 266 252 228 218 218 219 219 225 233 239 230 209 202 202 200 193 189 190 193 193 194 197 196 197 198 197 197 199 200 203 205 204 203 205 207 207 208 209 210 209 209 207 207 209 209 211 213 215 215 214 214 214 213 213 216 219 222 223 223 222 224 224 222 221 223 226 229 232 235 236 238 239 240 243 245 249 254 258 262 265 264 264 266 268
139 164 184 194 122 139 184 183 134 152 171 178 199 225 252 244 208 203 217 221 218 219 222 227 222 211 208 201 186 183 188 192 193 193 196 197 197 198 198 200 200 201 203 203 202 204 205 207 207 208 208 208 209 209 207 207 207 207 208 211 214 214 213 213 213 213 214 216 220 223 224 223 223 224 223 222 223 225 228 231 232 234 237 239 240 240 242 245 249 255 258 261 264 265 266 267 269
172 187 188 179 164 135 188 248 246 126 160 174 178 210 255 249 197 200 217 219 220 219 215 223 228 218 210 196 181 184 187 191 194 194 195 196 195 195 197 199 199 199 200 200 202 204 205 206 207 208 208 208 209 208 206 207 205 204 206 208 211 213 212 212 212 212 212 214 219 223 224 223 224 224 223 225 228 228 230 232 233 236 239 241 243 244 246 248 250 254 256 258 260 262 267 269 270